User: anonymous   Login
Location: ?
(35.4064°N, 139.3593°E)
Time: 02:11:12
(UTC+00:00)
Language:

Cosmos 1470 Rocket - Orbit

View from above orbital plane
View from above orbital plane
View from above satellite
View from above satellite

Ground track
Ground track

The orbit data is extracted from the following two-line orbital elements,

1 14148U 83061B   24167.58744523  .00000642  00000-0  73161-4 0  9998
2 14148  82.5191  35.2204 0020980 182.6833 177.4273 14.84493978192574
Epoch (UTC): 15 June 2024 14:05:55
Eccentricity: 0.0020980
inclination: 82.5191°
perigee height: 600 km
apogee height: 630 km
right ascension of ascending node: 35.2204°
argument of perigee: 182.6833°
revolutions per day: 14.84493978
mean anomaly at epoch: 177.4273°
orbit number at epoch: 19257

The dashed part of the orbit path shows where the satellite is in the earth's shadow,  

DLR